Location: Elstree
(51.6403°N, 0.2969°W)
Time: 19:52:50
(UTC+00:00)

Meteor 2-4 Rocket - Pass Details

Date: 03 March 2021
Orbit: 799 x 908 km, 81.2° (Epoch: 15 April)

Event Time Altitude Azimuth Distance (km) Brightness Sun altitude
Rises 18:44:03 0° 348° (NNW) 3,480 7.1 -9.9°
Reaches altitude 10° 18:46:31 10° 352° (N) 2,552 6.3 -10.3°
Maximum altitude 18:52:18 64° 74° (ENE) 995 3.8 -11.2°
Drops below altitude 10° 18:58:10 10° 155° (SSE) 2,582 5.9 -12.1°
Sets 19:00:40 0° 159° (SSE) 3,524 6.7 -12.5°
